This is the latest recevied weather packets stored in our database for station/object K8JMX-13. If no packets are shown the sender has not sent any weather packets the latest 10 day(s).
| Time | Temp. | Humidity | Pressure | Rain* | Wind** | Luminosity | Snow |
|---|---|---|---|---|---|---|---|
| 1778031919 | 15.56° C | 92% | 1006.8 hPa | 3.05 mm | - | 0 W/m² | - |
| 1778031615 | 15.56° C | 92% | 1006.5 hPa | 3.05 mm | - | 0 W/m² | - |
| 1778031313 | 15.56° C | 92% | 1006.7 hPa | 3.05 mm | - | 0 W/m² | - |
| 1778031010 | 15.56° C | 92% | 1006.6 hPa | 1.27 mm | - | 0 W/m² | - |
| 1778030705 | 15.56° C | 92% | 1006.4 hPa | 1.78 mm | - | 0 W/m² | - |
| 1778030403 | 15.56° C | 92% | 1006.4 hPa | 1.78 mm | - | 0 W/m² | - |
| 1778030100 | 15.56° C | 92% | 1006.4 hPa | 0 mm | - | 0 W/m² | - |
| 1778029796 | 15.56° C | 91% | 1006.3 hPa | 0 mm | - | 0 W/m² | - |
| 1778029496 | 15.56° C | 91% | 1006.3 hPa | 0 mm | - | 0 W/m² | - |
| 1778029191 | 15.56° C | 91% | 1006.2 hPa | 0 mm | - | 0 W/m² | - |
| 1778028889 | 15.56° C | 91% | 1006.3 hPa | 1.78 mm | - | 0 W/m² | - |
| 1778028584 | 15.56° C | 91% | 1006.3 hPa | 1.78 mm | - | 0 W/m² | - |
| 1778028282 | 15.56° C | 91% | 1006.3 hPa | 1.27 mm | - | 0 W/m² | - |
| 1778027978 | 15.56° C | 91% | 1006.4 hPa | 1.27 mm | - | 0 W/m² | - |
| 1778027675 | 15.56° C | 91% | 1006.4 hPa | 1.78 mm | - | 0 W/m² | - |
| 1778027371 | 15.56° C | 91% | 1006.5 hPa | 0 mm | - | 0 W/m² | - |
| 1778027067 | 15.56° C | 91% | 1006.5 hPa | 0 mm | - | 0 W/m² | - |
| 1778026763 | 15.56° C | 91% | 1006.3 hPa | 0 mm | - | 1 W/m² | - |
| 1778026460 | 15.56° C | 91% | 1006.4 hPa | 0 mm | - | 1 W/m² | - |
| 1778026157 | 15.56° C | 91% | 1006.4 hPa | 1.27 mm | - | 2 W/m² | - |
| 1778025855 | 15.56° C | 91% | 1006.5 hPa | 3.05 mm | - | 2 W/m² | - |
| 1778025552 | 15.56° C | 91% | 1006.4 hPa | 1.78 mm | - | 2 W/m² | - |
| 1778025250 | 15.56° C | 91% | 1006.3 hPa | 0 mm | - | 3 W/m² | - |
| 1778024946 | 15.56° C | 91% | 1006.4 hPa | 0 mm | - | 3 W/m² | - |
| 1778024644 | 15.56° C | 91% | 1006.5 hPa | 0 mm | - | 4 W/m² | - |
* Rain latest hour (hover to see other rain measurements)
** Current wind speed in m/s (hover to see current wind gust speed)